ANIK C2 R/B(PAM-D), 14135

Orbit data source: Space-Track

ANIK C2 R/B(PAM-D), 14135 is space debris in HEO originally from a launch on Sat, 18 Jun 1983 UTC launched from the Air Force Eastern Test Range (AFETR). Debris objects in space refer to the collection of defunct objects orbiting the Earth. Examples of debris include non-operational satellites, rocket bodies, and fragments generated from explosions, collisions, or faulty payload assembly.

Loading next visibility...
Identifier
14135, 1983-059D
Orbit
HEO
Country
Flag of USUS
Related business
Manufacturer
Thiokol/TE
Mission
Spacecraft
Bus & Motor
STAR 48, Unknown motor
Mass
2,154 kg wet, 191 kg dry
Launch date (UTC)
1983-06-18 (43 years ago)
Launch vehicle
Unknown
Launch site
Air Force Eastern Test Range (AFETR)
Object type
Payload
Rocket body
Debris
Shape & HBR
Unknown
Radar Cross Section
Large (>1 m²)

Expand to show TLE details & history
Last TLE update: 19 hours ago

TLE from 19 hours ago
0 ANIK C2 R/B(PAM-D)
1 14135U 83059D   26066.24877479  .00001898  00000-0  15752-2 0  9995
2 14135  22.9572 178.4293 6910578 322.8902   5.2325  2.71268295318718
Epoch: 2026-03-07T05:58Z
TLE epoch observation values (Epoch: 2026-03-07T05:58:14.141Z)
Latitude
-0.00002°
Longitude
-76.1805°
Altitude
926.376 km
Speed
9.528 km/s
True Right ascension
11h 53m 24s
True Declination
0° 00' 00"
Sunlit
Object was in full shadow at epoch
Visualization orbit readout
Latitude
Unknown
Longitude
Unknown
Altitude
Unknown
Speed
Unknown
Apparent Right ascension
Unknown
Apparent Declination
Unknown
Sunlit
N/A
Visualization observer readout
Local Sidereal Time
04:35:20
Azimuth
Unknown
Elevation
Unknown
Doppler factor
Unknown
Orbital elements
Apogee altitude
30,353.822 km
Perigee altitude
332.487 km
Semi-major axis
21,721.291 km
Eccentricity
0.69106
Inclination
22.9572°
RAAN
178.4293°
Arg. of periapsis
322.8902°
True anomaly
37.33668°
Mean anomaly
5.2325°
Eccentric anomaly
16.43478°
Mean motion
0.67798 °/min
Orbital period
530.99 mins
BSTAR
0.0015752
Loading maneuver chart data...
Computing Atmospheric mass density...
Loading historical data...
Loading historical data...
Loading historical data...
Loading historical data...
Loading historical data...
Loading historical data...
Loading historical data...

Documentation

Showing up to 5 results
|